�������l�o���
Date,Time,MP-1(��Sv/h),MP-2(��Sv/h),MP-3(��Sv/h),MP-4(��Sv/h),MP-5(��Sv/h),MP-6(��Sv/h),MP-7(��Sv/h),MP-8(��Sv/h),����,����(m/s),���J
2021/11/09,00:00,0.595,0.892,0.563,1.097,0.768,0.359,0.625,0.588,��,3.2,��
2021/11/09,00:10,0.595,0.893,0.564,1.095,0.770,0.359,0.627,0.587,��쓌,3.4,�L
2021/11/09,00:20,0.594,0.892,0.564,1.095,0.769,0.359,0.626,0.587,�쓌,3.0,�L
2021/11/09,00:30,0.595,0.894,0.564,1.097,0.770,0.359,0.626,0.587,��쓌,3.0,��
2021/11/09,00:40,0.594,0.894,0.564,1.095,0.771,0.358,0.626,0.587,�쓌,3.9,��
2021/11/09,00:50,0.595,0.894,0.565,1.096,0.768,0.362,0.624,0.588,�쓌,2.5,��
2021/11/09,01:00,0.593,0.892,0.563,1.095,0.770,0.358,0.625,0.588,�쓌,1.9,��
2021/11/09,01:10,0.594,0.892,0.566,1.097,0.769,0.359,0.625,0.587,�쓌,3.3,�L
2021/11/09,01:20,0.596,0.892,0.563,1.096,0.768,0.359,0.624,0.587,��쓌,2.9,�L
2021/11/09,01:30,0.595,0.891,0.563,1.093,0.769,0.358,0.625,0.588,��,4.7,�L
2021/11/09,01:40,0.594,0.890,0.565,1.095,0.766,0.362,0.625,0.588,��,5.3,�L
2021/11/09,01:50,0.591,0.889,0.563,1.096,0.769,0.359,0.625,0.588,��쐼,3.3,��
2021/11/09,02:00,0.592,0.890,0.563,1.097,0.768,0.360,0.624,0.587,��쐼,3.5,��
2021/11/09,02:10,0.591,0.890,0.564,1.096,0.764,0.359,0.624,0.586,��쐼,4.1,�L
2021/11/09,02:20,0.591,0.887,0.562,1.094,0.764,0.356,0.624,0.586,��,5.6,�L
2021/11/09,02:30,0.588,0.883,0.560,1.093,0.762,0.357,0.622,0.584,��,4.9,�L
2021/11/09,02:40,0.590,0.881,0.559,1.090,0.762,0.358,0.621,0.586,��쐼,4.0,�L
2021/11/09,02:50,0.591,0.884,0.558,1.092,0.762,0.358,0.620,0.587,��쐼,5.0,��
2021/11/09,03:00,0.591,0.885,0.559,1.092,0.761,0.358,0.620,0.584,��쐼,5.0,��
2021/11/09,03:10,0.591,0.883,0.560,1.091,0.761,0.358,0.622,0.585,��쐼,5.0,��
2021/11/09,03:20,0.591,0.884,0.561,1.093,0.766,0.358,0.621,0.585,��쐼,4.2,�L
2021/11/09,03:30,0.590,0.884,0.558,1.091,0.760,0.359,0.623,0.587,��쐼,5.6,��
2021/11/09,03:40,0.592,0.884,0.559,1.090,0.761,0.357,0.622,0.586,��쐼,5.5,��
2021/11/09,03:50,0.591,0.885,0.560,1.090,0.762,0.358,0.622,0.587,��쐼,5.3,�L
2021/11/09,04:00,0.590,0.883,0.560,1.091,0.762,0.359,0.624,0.586,��쐼,5.0,��
2021/11/09,04:10,0.590,0.882,0.560,1.091,0.765,0.358,0.621,0.585,��쐼,4.3,��
2021/11/09,04:20,0.589,0.882,0.561,1.091,0.763,0.360,0.624,0.585,��쐼,4.3,��
2021/11/09,04:30,0.591,0.883,0.560,1.091,0.763,0.359,0.624,0.586,��쐼,4.9,��
2021/11/09,04:40,0.588,0.883,0.560,1.091,0.764,0.358,0.625,0.584,��,4.4,��
2021/11/09,04:50,0.590,0.884,0.560,1.091,0.764,0.358,0.621,0.585,��,3.8,��
2021/11/09,05:00,0.588,0.884,0.560,1.091,0.760,0.358,0.623,0.587,��,3.8,��
2021/11/09,05:10,0.590,0.883,0.560,1.090,0.763,0.357,0.623,0.587,��,2.5,��
2021/11/09,05:20,0.590,0.883,0.562,1.093,0.763,0.359,0.624,0.586,��,2.6,��
2021/11/09,05:30,0.589,0.884,0.560,1.091,0.762,0.357,0.623,0.586,��,2.6,��
2021/11/09,05:40,0.590,0.882,0.560,1.091,0.764,0.358,0.623,0.584,��쓌,2.5,��
2021/11/09,05:50,0.590,0.886,0.560,1.091,0.761,0.357,0.624,0.586,��쓌,1.7,��
2021/11/09,06:00,0.590,0.886,0.559,1.091,0.763,0.358,0.624,0.584,��쓌,1.2,��
2021/11/09,06:10,0.591,0.885,0.558,1.091,0.763,0.359,0.622,0.585,�쓌,1.1,�L
2021/11/09,06:20,0.591,0.882,0.560,1.091,0.763,0.358,0.622,0.585,���쓌,1.2,��
2021/11/09,06:30,0.592,0.886,0.558,1.092,0.762,0.357,0.624,0.585,���쓌,1.5,��
2021/11/09,06:40,0.589,0.884,0.562,1.091,0.763,0.358,0.622,0.586,��,2.0,��
2021/11/09,06:50,0.592,0.884,0.560,1.091,0.763,0.358,0.623,0.586,���쓌,2.0,��
2021/11/09,07:00,0.593,0.885,0.561,1.092,0.763,0.359,0.623,0.585,��,1.5,��
2021/11/09,07:10,0.592,0.885,0.559,1.090,0.764,0.359,0.623,0.586,���쓌,1.2,�L
2021/11/09,07:20,0.593,0.885,0.561,1.093,0.763,0.359,0.622,0.586,��,0.9,�L
2021/11/09,07:30,0.593,0.885,0.561,1.092,0.763,0.358,0.622,0.585,���쓌,0.9,�L
2021/11/09,07:40,0.590,0.882,0.560,1.090,0.763,0.359,0.622,0.585,��,0.6,�L
2021/11/09,07:50,0.592,0.883,0.560,1.091,0.762,0.359,0.622,0.584,-,CALM,��
2021/11/09,08:00,0.591,0.884,0.560,1.092,0.761,0.358,0.621,0.585,�k�k��,1.2,��
2021/11/09,08:10,0.591,0.882,0.562,1.092,0.762,0.358,0.621,0.583,��,1.7,�L
2021/11/09,08:20,0.587,0.873,0.556,1.082,0.750,0.356,0.617,0.581,���쓌,2.3,�L
2021/11/09,08:30,0.586,0.871,0.556,1.078,0.749,0.357,0.618,0.578,�쓌,2.8,�L
2021/11/09,08:40,0.588,0.872,0.556,1.079,0.748,0.356,0.618,0.579,�쓌,2.5,�L
2021/11/09,08:50,0.579,0.856,0.550,1.068,0.734,0.351,0.612,0.575,���쓌,5.5,�L
2021/11/09,09:00,0.571,0.846,0.549,1.055,0.733,0.350,0.611,0.574,��쓌,9.4,�L
2021/11/09,09:10,0.572,0.846,0.549,1.056,0.733,0.351,0.612,0.575,��쓌,8.6,�L
2021/11/09,09:20,0.570,0.845,0.547,1.052,0.730,0.351,0.611,0.575,��쓌,7.1,�L
2021/11/09,09:30,0.574,0.849,0.546,1.052,0.732,0.352,0.613,0.575,��쓌,7.3,�L
2021/11/09,09:40,0.574,0.848,0.549,1.054,0.734,0.352,0.613,0.577,��쓌,8.0,�L
2021/11/09,09:50,0.574,0.851,0.548,1.056,0.735,0.351,0.611,0.576,�쓌,7.6,�L
2021/11/09,10:00,0.574,0.853,0.551,1.055,0.735,0.351,0.612,0.575,�쓌,7.6,�L
2021/11/09,10:10,0.574,0.852,0.549,1.056,0.738,0.352,0.610,0.575,�쓌,8.0,��
2021/11/09,10:20,0.575,0.851,0.551,1.056,0.737,0.352,0.613,0.577,�쓌,7.9,��
2021/11/09,10:30,0.576,0.853,0.550,1.057,0.737,0.352,0.612,0.576,�쓌,7.8,��
2021/11/09,10:40,0.576,0.851,0.553,1.056,0.738,0.350,0.613,0.576,�쓌,7.9,��
2021/11/09,10:50,0.575,0.855,0.550,1.056,0.738,0.351,0.613,0.576,�쓌,7.6,�L
2021/11/09,11:00,0.576,0.855,0.551,1.054,0.740,0.353,0.613,0.575,��쓌,6.8,�L
2021/11/09,11:10,0.574,0.852,0.550,1.057,0.738,0.353,0.613,0.575,��쓌,7.7,�L
2021/11/09,11:20,0.574,0.852,0.549,1.057,0.739,0.351,0.613,0.576,��쓌,7.5,�L
2021/11/09,11:30,0.575,0.850,0.548,1.055,0.737,0.351,0.611,0.573,��쓌,8.6,�L
2021/11/09,11:40,0.573,0.848,0.547,1.052,0.730,0.348,0.612,0.574,��쓌,9.8,�L
2021/11/09,11:50,0.573,0.849,0.546,1.049,0.729,0.349,0.611,0.574,��쓌,9.5,�L
2021/11/09,12:00,0.573,0.847,0.544,1.050,0.728,0.350,0.610,0.572,��쓌,9.2,�L
2021/11/09,12:10,0.572,0.848,0.543,1.049,0.731,0.350,0.611,0.575,��쓌,8.1,��
2021/11/09,12:20,0.573,0.849,0.544,1.048,0.734,0.351,0.611,0.574,��쓌,9.6,��
2021/11/09,12:30,0.575,0.849,0.545,1.048,0.733,0.351,0.612,0.572,��쓌,9.3,��
2021/11/09,12:40,0.573,0.850,0.546,1.050,0.734,0.350,0.612,0.573,��쓌,9.1,�L
2021/11/09,12:50,0.574,0.852,0.544,1.049,0.735,0.351,0.612,0.574,��쓌,8.6,�L
2021/11/09,13:00,0.574,0.852,0.543,1.051,0.735,0.352,0.611,0.574,��쓌,7.4,�L
2021/11/09,13:10,0.574,0.850,0.545,1.049,0.732,0.352,0.612,0.573,��쓌,7.0,�L
2021/11/09,13:20,0.564,0.833,0.540,1.035,0.716,0.345,0.603,0.566,�쓌,7.6,�L
2021/11/09,13:30,0.547,0.809,0.529,1.006,0.694,0.340,0.599,0.558,��쓌,6.6,�L
2021/11/09,13:40,0.554,0.818,0.533,1.013,0.703,0.345,0.600,0.561,��쓌,6.4,�L
2021/11/09,13:50,0.557,0.822,0.533,1.012,0.704,0.347,0.601,0.563,��,6.7,�L
2021/11/09,14:00,0.559,0.828,0.535,1.013,0.705,0.347,0.600,0.565,��,7.9,�L
2021/11/09,14:10,0.554,0.819,0.532,1.007,0.698,0.344,0.597,0.563,��쓌,8.5,�L
2021/11/09,14:20,0.552,0.817,0.533,1.005,0.696,0.345,0.599,0.563,��,9.3,�L
2021/11/09,14:30,0.556,0.820,0.531,1.006,0.697,0.346,0.600,0.564,��쓌,11.0,�L
2021/11/09,14:40,0.556,0.823,0.534,1.006,0.699,0.348,0.600,0.564,��쓌,12.4,�L
2021/11/09,14:50,0.558,0.826,0.533,1.010,0.702,0.348,0.599,0.566,��쓌,10.2,�L
2021/11/09,15:00,0.559,0.825,0.534,1.009,0.700,0.349,0.599,0.564,��쓌,8.2,�L
2021/11/09,15:10,0.558,0.824,0.534,1.008,0.697,0.347,0.600,0.564,��쓌,8.5,�L
2021/11/09,15:20,0.560,0.829,0.536,1.009,0.700,0.348,0.600,0.564,��쓌,12.1,�L
2021/11/09,15:30,0.558,0.827,0.533,1.012,0.701,0.348,0.598,0.564,��쓌,13.8,�L
2021/11/09,15:40,0.555,0.820,0.530,1.003,0.694,0.348,0.599,0.563,��쓌,11.4,�L
2021/11/09,15:50,0.558,0.822,0.530,1.006,0.697,0.347,0.600,0.564,��쓌,10.7,�L
2021/11/09,16:00,0.555,0.822,0.534,1.005,0.696,0.347,0.599,0.564,��,7.6,�L
2021/11/09,16:10,0.558,0.825,0.533,1.012,0.700,0.350,0.600,0.565,��,7.5,�L
2021/11/09,16:20,0.559,0.826,0.535,1.012,0.701,0.349,0.601,0.565,��,8.2,�L
2021/11/09,16:30,0.561,0.827,0.535,1.013,0.703,0.349,0.601,0.565,��,7.5,�L
2021/11/09,16:40,0.559,0.827,0.533,1.016,0.701,0.348,0.600,0.565,��,6.2,�L
2021/11/09,16:50,0.558,0.823,0.534,1.015,0.698,0.348,0.599,0.564,��,6.5,�L
2021/11/09,17:00,0.554,0.819,0.530,1.007,0.693,0.346,0.596,0.561,��,8.2,�L
2021/11/09,17:10,0.552,0.821,0.530,1.009,0.696,0.349,0.597,0.561,��,7.9,�L
2021/11/09,17:20,0.557,0.823,0.533,1.013,0.700,0.348,0.598,0.561,��,6.6,�L
2021/11/09,17:30,0.559,0.827,0.533,1.014,0.703,0.348,0.598,0.564,��쐼,6.2,�L
2021/11/09,17:40,0.559,0.827,0.535,1.014,0.700,0.349,0.600,0.563,���쐼,3.3,�L
2021/11/09,17:50,0.558,0.826,0.534,1.016,0.699,0.348,0.599,0.564,��,4.0,�L
2021/11/09,18:00,0.560,0.828,0.533,1.016,0.700,0.350,0.600,0.564,���쐼,3.9,�L
2021/11/09,18:10,0.555,0.821,0.531,1.009,0.694,0.346,0.595,0.561,��,5.5,�L
2021/11/09,18:20,0.556,0.823,0.530,1.009,0.695,0.349,0.597,0.564,��,6.1,�L
2021/11/09,18:30,0.556,0.825,0.533,1.012,0.700,0.349,0.599,0.562,���k��,5.9,�L
2021/11/09,18:40,0.559,0.827,0.534,1.013,0.695,0.348,0.598,0.561,��,6.5,�L
2021/11/09,18:50,0.551,0.813,0.527,1.001,0.685,0.345,0.594,0.560,���k��,7.9,�L
2021/11/09,19:00,0.550,0.814,0.529,1.002,0.689,0.347,0.595,0.560,���k��,7.5,�L
2021/11/09,19:10,0.556,0.818,0.532,1.004,0.691,0.348,0.597,0.561,���k��,7.1,�L
2021/11/09,19:20,0.556,0.820,0.533,1.005,0.694,0.348,0.597,0.563,���k��,5.2,�L
2021/11/09,19:30,0.557,0.823,0.535,1.012,0.694,0.349,0.599,0.563,���k��,6.7,�L
2021/11/09,19:40,0.560,0.824,0.535,1.011,0.693,0.349,0.599,0.562,��,5.8,�L
2021/11/09,19:50,0.554,0.811,0.532,0.998,0.680,0.347,0.595,0.555,�k�k��,2.8,�L
2021/11/09,20:00,0.547,0.813,0.532,0.995,0.681,0.346,0.592,0.554,�k��,6.7,�L
2021/11/09,20:10,0.547,0.817,0.534,0.997,0.683,0.346,0.593,0.557,�k��,8.4,�L
2021/11/09,20:20,0.549,0.815,0.533,0.992,0.679,0.348,0.592,0.555,���k��,8.4,�L
2021/11/09,20:30,0.546,0.804,0.529,0.985,0.673,0.347,0.591,0.555,���k��,6.8,�L
2021/11/09,20:40,0.548,0.809,0.528,0.986,0.671,0.349,0.592,0.554,�k��,3.2,�L
2021/11/09,20:50,0.550,0.813,0.534,0.991,0.677,0.352,0.594,0.557,�k��,2.0,�L
2021/11/09,21:00,0.557,0.820,0.536,0.997,0.680,0.351,0.596,0.561,�k��,2.9,�L
2021/11/09,21:10,0.562,0.823,0.538,1.002,0.683,0.353,0.599,0.561,���k��,3.4,�L
2021/11/09,21:20,0.562,0.827,0.536,1.005,0.683,0.352,0.599,0.563,���k��,2.9,�L
2021/11/09,21:30,0.562,0.827,0.538,1.008,0.684,0.354,0.599,0.564,���k��,4.8,�L
2021/11/09,21:40,0.563,0.828,0.538,1.008,0.685,0.352,0.598,0.565,���k��,5.7,�L
2021/11/09,21:50,0.562,0.828,0.537,1.013,0.685,0.353,0.600,0.566,���k��,5.9,�L
2021/11/09,22:00,0.563,0.828,0.534,1.011,0.685,0.353,0.601,0.565,�k��,6.2,��
2021/11/09,22:10,0.562,0.830,0.538,1.015,0.688,0.354,0.600,0.565,�k��,6.8,��
2021/11/09,22:20,0.563,0.834,0.536,1.018,0.688,0.352,0.602,0.567,���k��,6.5,��
2021/11/09,22:30,0.564,0.835,0.539,1.017,0.688,0.351,0.601,0.568,���k��,5.6,��
2021/11/09,22:40,0.564,0.834,0.536,1.017,0.690,0.353,0.601,0.568,���k��,7.8,��
2021/11/09,22:50,0.564,0.835,0.536,1.020,0.689,0.351,0.602,0.568,���k��,8.3,��
2021/11/09,23:00,0.564,0.834,0.537,1.020,0.692,0.352,0.601,0.569,���k��,8.9,��
2021/11/09,23:10,0.564,0.835,0.536,1.019,0.691,0.351,0.602,0.569,���k��,7.5,��
2021/11/09,23:20,0.565,0.836,0.536,1.021,0.691,0.352,0.602,0.569,���k��,5.8,�L
2021/11/09,23:30,0.563,0.831,0.535,1.019,0.687,0.350,0.601,0.569,���k��,5.0,�L
2021/11/09,23:40,0.558,0.823,0.533,1.018,0.684,0.351,0.602,0.568,���k��,6.6,�L
2021/11/09,23:50,0.559,0.827,0.535,1.015,0.684,0.352,0.601,0.567,���k��,6.6,�L
